[[{"header":{"parameterUnit":"m.s-1","parameterCategory":1,"la1":30.2991,"la2":30.254,"lo1":-89.0895,"lo2":-89.0444,"dy":0.0017,"dx":0.0017,"nx":28,"ny":28,"refTime":"2025-03-12T21:00:00:Z","depth":0,"parameterNumber":2,"parameterNumberName":"U-component_of_WINDS"},"data":[0,0,0,0,0,0,0,0,0,0,0,0,0,0,0,0,0,0,0,0,0,0,0,0,0,0,0,0,0,0,0,0,0,0,0,0,0,0,0,0,0,0,0,0,0,0,0,0,0,0,0,0,0,0,0,0,0,0,0.7237,0.7239,0,0.7383,0.7385,0.7386,0.7393,0.7391,0.7389,0.7388,0.754,0.7546,0.7551,0,0,0,0,0,0,0,0,0,0,0,0,0,0.6969,0.6974,0.7237,0.7239,0.7241,0.7383,0.7385,0.7387,0.7393,0.7391,0.7389,0.7387,0.7538,0.7545,0.7552,0,0,0,0,0,0,0,0,0,0,0,0,0,0.7097,0.6975,0.7237,0.7261,0.7265,0.7382,0.7385,0.7387,0.7394,0.7391,0.7388,0.7386,0.7536,0.7544,0.7553,0.7657,0,0,0.7579,0.7582,0,0,0,0,0,0,0,0,0.709,0.7107,0.7256,0.726,0.7264,0.7367,0.7346,0.7478,0.7394,0.7345,0.7388,0.7385,0.7485,0.7497,0.7531,0.7664,0.767,0.7579,0.7585,0.7588,0.7591,0,0,0,0,0,0,0,0.7081,0.7101,0.7295,0.7258,0.7263,0.7266,0.7281,0.7371,0.7428,0.7349,0.735,0.7367,0.7487,0.7522,0.7534,0.7673,0.7579,0.7587,0.7592,0.7595,0.79,0.7903,0,0,0,0,0,0,0.7067,0.7093,0.729,0.7299,0.7169,0.7273,0.729,0.7337,0.7427,0.7438,0.7369,0.7367,0.7509,0.7524,0.754,0.7669,0.7588,0.7596,0.7601,0.7897,0.7901,0.7904,0,0,0,0,0,0,0.7061,0.7084,0.7284,0.7197,0.7222,0.728,0.7332,0.7341,0.7376,0.7442,0.7452,0.7395,0.7508,0.7528,0.7628,0.7674,0.76,0.7608,0.7893,0.7898,0.7902,0.7926,0,0,0,0,0,0,0.7053,0.7082,0.7121,0.7197,0.7227,0.7369,0.7335,0.7346,0.7391,0.7389,0.7469,0.7479,0.7507,0.7615,0.7636,0.7684,0.7614,0.789,0.7896,0.7901,0.7922,0.7931,0.7939,0,0,0,0,0,0.7043,0.7123,0.7123,0.7147,0.7277,0.7372,0.7389,0.7418,0.7394,0.7435,0.7477,0.7477,0.7665,0.7625,0.7649,0.77,0.7887,0.7894,0.79,0.7918,0.7929,0.7939,0,0,0,0,0,0,0.7052,0.7133,0.7135,0.7241,0.7299,0.7373,0.7425,0.7429,0.7497,0.7493,0.7527,0.7545,0.7645,0.7682,0.7637,0.7806,0.7773,0.7785,0.7778,0.779,0.7798,0.7788,0.7621,0,0,0,0,0,0.7066,0.7135,0.7203,0.729,0.7319,0.7367,0.7409,0.7427,0.7489,0.7514,0.7564,0.7625,0.7698,0.7746,0.7816,0.7926,0.7945,0.7974,0.7982,0.7989,0.8,0.8062,0.8076,0.7926,0.7926,0.7926,0,0,0.7096,0.7149,0.7191,0.7293,0.734,0.7412,0.7388,0.7465,0.7519,0.7527,0.7624,0.7662,0.7733,0.7839,0.7888,0.7873,0.8045,0.7998,0.8003,0.801,0.807,0.8084,0.8097,0.7931,0.793,0.7929,0,0,0.7188,0.7234,0.7312,0.736,0.7432,0.7463,0.7482,0.7555,0.7581,0.7679,0.7686,0.7751,0.7876,0.7927,0.7969,0.808,0.8083,0.8102,0.8148,0.8208,0.822,0.8231,0.8272,0.8286,0.8111,0.8111,0.8112,0,0.7217,0.7325,0.7352,0.743,0.7475,0.7484,0.7564,0.7609,0.7701,0.7733,0.7714,0.7871,0.792,0.8038,0.8065,0.8098,0.8122,0.8094,0.8216,0.8227,0.8237,0.8277,0.8292,0.8113,0.8113,0.8113,0.8113,0,0.7357,0.7432,0.7487,0.7574,0.7626,0.7704,0.7745,0.7794,0.7806,0.784,0.794,0.7998,0.8082,0.811,0.8124,0.8231,0.822,0.8208,0.8176,0.8253,0.8291,0.8306,0.8116,0.8116,0.8115,0.8115,0,0,0.746,0.7561,0.7581,0.7622,0.7701,0.776,0.7839,0.792,0.7962,0.8024,0.8093,0.8197,0.8187,0.8235,0.8254,0.8307,0.8393,0.8289,0.8291,0.8308,0.8516,0.8526,0.8543,0.8394,0.8397,0.8399,0.8511,0,0.7562,0.7703,0.773,0.7852,0.7923,0.7932,0.8001,0.8058,0.8091,0.8156,0.8193,0.8268,0.8248,0.8277,0.8329,0.8371,0.8435,0.8363,0.846,0.8463,0.8444,0.8562,0.8573,0.8675,0.8525,0.8528,0.853,0,0.7701,0.7766,0.7895,0.7966,0.7997,0.8058,0.8135,0.8196,0.8261,0.8282,0.8335,0.8348,0.8432,0.8394,0.8511,0.8461,0.8502,0.8529,0.8533,0.8545,0.8502,0.8579,0.8708,0.8724,0.8553,0.8551,0.855,0,0.7765,0.7885,0.7978,0.8012,0.8097,0.814,0.8178,0.824,0.8287,0.8353,0.8384,0.846,0.8502,0.856,0.8594,0.8563,0.8709,0.8674,0.873,0.8729,0.8762,0.876,0.8901,0.8785,0.8784,0.8784,0.8784,0,0.7877,0.7956,0.8008,0.8066,0.8155,0.8186,0.8274,0.8311,0.8366,0.8432,0.8444,0.8505,0.8545,0.8613,0.864,0.8733,0.8751,0.8771,0.8778,0.8772,0.8769,0.88,0.8795,0.8788,0.8787,0.8786,0.8786,0,0.7965,0.8002,0.8105,0.8176,0.8196,0.8259,0.8321,0.8378,0.841,0.8493,0.8515,0.8567,0.8647,0.8686,0.8785,0.8803,0.891,0.891,0.8888,0.8891,0.8945,0.894,0.9113,0.9138,0.9003,0.9004,0.9005,0,0.8035,0.8096,0.8174,0.8218,0.8257,0.8328,0.8376,0.8408,0.8458,0.8536,0.8584,0.8664,0.873,0.8858,0.8905,0.8982,0.8986,0.9041,0.8998,0.8989,0.8989,0.8986,0.8993,0.905,0.9051,0.9052,0.9053,0,0.8156,0.8172,0.8239,0.8314,0.837,0.8431,0.8491,0.8526,0.8569,0.8624,0.8705,0.8756,0.8858,0.8938,0.9018,0.9057,0.9063,0.9066,0.9083,0.9078,0.9063,0.9074,0.8911,0.9062,0.9061,0.9061,0.906,0.906,0.8238,0.8294,0.8357,0.8433,0.848,0.8536,0.8593,0.8633,0.8701,0.8786,0.8801,0.8888,0.8952,0.9059,0.9101,0.917,0.9158,0.9183,0.919,0.9196,0.9199,0.905,0.9185,0.9185,0.9184,0.9184,0.9184,0,0.8362,0.8403,0.8472,0.8555,0.8614,0.8612,0.8678,0.8729,0.8805,0.8864,0.8928,0.9023,0.91,0.9153,0.9232,0.9278,0.9282,0.9298,0.9296,0.9305,0.9205,0.9183,0.9293,0.9293,0.9293,0.9293,0.9292,0.9292,0.8433,0.8527,0.855,0.8668,0.8709,0.8794,0.8832,0.8883,0.893,0.9035,0.9099,0.9133,0.919,0.9273,0.9345,0.9358,0.9388,0.9403,0.9417,0.9323,0.9312,0.9301,0.9281,0.9409,0.9409,0.9511,0.9512,0.9513]},{"header":{"parameterUnit":"m.s-1","parameterCategory":1,"la1":30.2991,"la2":30.254,"lo1":-89.0895,"lo2":-89.0444,"dy":0.0017,"dx":0.0017,"nx":28,"ny":28,"refTime":"2025-03-12T21:00:00:Z","depth":0,"parameterNumber":3,"parameterNumberName":"V-component_of_WINDS"},"data":[0,0,0,0,0,0,0,0,0,0,0,0,0,0,0,0,0,0,0,0,0,0,0,0,0,0,0,0,0,0,0,0,0,0,0,0,0,0,0,0,0,0,0,0,0,0,0,0,0,0,0,0,0,0,0,0,0,0,2.4392,2.4393,0,2.4453,2.4454,2.4454,2.4445,2.4444,2.4443,2.4442,2.45,2.4502,2.4505,0,0,0,0,0,0,0,0,0,0,0,0,0,2.4263,2.4266,2.4392,2.4393,2.4394,2.4453,2.4454,2.4455,2.4445,2.4444,2.4443,2.4442,2.4499,2.4502,2.4505,0,0,0,0,0,0,0,0,0,0,0,0,0,2.4321,2.4267,2.4392,2.4397,2.4398,2.4453,2.4454,2.4455,2.4446,2.4444,2.4443,2.4441,2.4498,2.4502,2.4505,2.4559,0,0,2.4517,2.4518,0,0,0,0,0,0,0,0,2.4318,2.4326,2.4395,2.4396,2.4398,2.444,2.4429,2.449,2.4446,2.4427,2.4442,2.444,2.4481,2.4486,2.4501,2.4562,2.4564,2.4517,2.4519,2.4521,2.4522,0,0,0,0,0,0,0,2.4314,2.4323,2.4416,2.4396,2.4398,2.4394,2.44,2.4441,2.4462,2.4429,2.4428,2.4436,2.4481,2.4497,2.4502,2.4565,2.4517,2.452,2.4523,2.4524,2.4671,2.4672,0,0,0,0,0,0,2.4309,2.432,2.4414,2.4418,2.4353,2.4397,2.4405,2.4428,2.4461,2.4465,2.4437,2.4435,2.4491,2.4497,2.4504,2.4568,2.4521,2.4524,2.4527,2.4669,2.4671,2.4673,0,0,0,0,0,0,2.4307,2.4318,2.4412,2.4369,2.4381,2.4401,2.4427,2.443,2.4446,2.4468,2.4471,2.445,2.449,2.4499,2.4545,2.457,2.4526,2.4529,2.4667,2.467,2.4672,2.4697,0,0,0,0,0,0,2.4303,2.4317,2.4339,2.437,2.4383,2.4454,2.4429,2.4432,2.4453,2.4451,2.448,2.4484,2.449,2.454,2.4549,2.4574,2.4532,2.4665,2.4668,2.4671,2.4694,2.47,2.4705,0,0,0,0,0,2.4298,2.4343,2.434,2.4352,2.4411,2.4456,2.4463,2.4471,2.4455,2.4476,2.449,2.4483,2.4566,2.4545,2.4555,2.4582,2.4664,2.4668,2.4671,2.4692,2.4699,2.4705,0,0,0,0,0,0,2.4313,2.4347,2.4344,2.44,2.4425,2.4454,2.4481,2.4478,2.4507,2.4504,2.451,2.4517,2.4564,2.4577,2.4553,2.4634,2.4612,2.4618,2.4624,2.4631,2.4637,2.4632,2.4535,0,0,0,0,0,2.4323,2.4358,2.4385,2.4432,2.4445,2.4461,2.448,2.4484,2.4509,2.4519,2.4537,2.456,2.4591,2.4612,2.4642,2.4696,2.4701,2.4719,2.4724,2.4729,2.4734,2.4762,2.477,2.4685,2.4685,2.4685,0,0,2.4344,2.4367,2.4388,2.4435,2.4455,2.4489,2.447,2.4507,2.4532,2.4525,2.457,2.4583,2.461,2.466,2.4683,2.4672,2.4758,2.4733,2.4737,2.474,2.4766,2.4774,2.4781,2.4688,2.4687,2.4687,0,0,2.44,2.4421,2.4462,2.4482,2.4512,2.4523,2.4532,2.4561,2.457,2.4616,2.4611,2.4639,2.4693,2.4712,2.4729,2.479,2.4784,2.4799,2.4828,2.4855,2.4862,2.4868,2.4889,2.4897,2.4804,2.4804,2.4804,0,2.4421,2.4475,2.4483,2.4521,2.4541,2.4537,2.4577,2.4595,2.4633,2.4647,2.4635,2.4702,2.4719,2.4773,2.4788,2.4802,2.4812,2.4796,2.4861,2.4867,2.4872,2.4892,2.49,2.4806,2.4806,2.4806,2.4805,0,2.4499,2.4536,2.4565,2.4603,2.4626,2.4665,2.4677,2.4699,2.47,2.4711,2.4757,2.4778,2.4811,2.4824,2.4825,2.4878,2.487,2.4859,2.4838,2.4882,2.4901,2.4909,2.4808,2.4808,2.4807,2.4807,0,0,2.4567,2.4608,2.4619,2.4636,2.4668,2.4696,2.4733,2.4768,2.4786,2.4812,2.4842,2.4887,2.4877,2.4896,2.4899,2.4923,2.4969,2.4909,2.4909,2.4919,2.5027,2.5035,2.5044,2.4965,2.4966,2.4967,2.5024,0,2.4625,2.4694,2.4702,2.4762,2.4795,2.4791,2.4823,2.4845,2.4856,2.4884,2.4895,2.4927,2.4911,2.4923,2.4946,2.4958,2.499,2.4954,2.4992,2.4993,2.4986,2.5054,2.5063,2.5115,2.5032,2.5033,2.5034,0,2.4703,2.4732,2.4796,2.4823,2.4837,2.4867,2.4898,2.4925,2.495,2.4955,2.4976,2.4975,2.5012,2.4988,2.5038,2.5013,2.5029,2.5037,2.5039,2.5043,2.5017,2.5059,2.5132,2.514,2.5046,2.5045,2.5044,0,2.4746,2.4801,2.4846,2.486,2.4893,2.4913,2.4928,2.4951,2.497,2.4996,2.5009,2.5039,2.5055,2.5077,2.5084,2.5066,2.5133,2.511,2.5138,2.5137,2.5152,2.5151,2.5229,2.5162,2.5162,2.5162,2.5162,0,2.481,2.4849,2.4865,2.4893,2.4936,2.4943,2.4985,2.4998,2.5018,2.5047,2.5044,2.5071,2.5078,2.5105,2.511,2.515,2.5157,2.5162,2.5163,2.5162,2.5162,2.5173,2.5169,2.5164,2.5164,2.5163,2.5163,0,2.4866,2.4878,2.4927,2.4954,2.4961,2.4992,2.5013,2.5039,2.5049,2.5085,2.5094,2.5109,2.514,2.5149,2.5187,2.519,2.5237,2.5235,2.5229,2.5229,2.5256,2.5254,2.5344,2.5356,2.5282,2.5282,2.5283,0,2.4906,2.4936,2.4966,2.4986,2.5002,2.5033,2.5053,2.506,2.5081,2.511,2.5132,2.5164,2.519,2.524,2.5253,2.5282,2.528,2.5309,2.5284,2.5282,2.528,2.5278,2.528,2.5314,2.5315,2.5316,2.5316,0,2.4977,2.4981,2.5011,2.5043,2.5067,2.5092,2.5116,2.5131,2.5142,2.5164,2.5198,2.5218,2.5257,2.5288,2.5316,2.5329,2.5324,2.5324,2.5332,2.5332,2.5328,2.533,2.5242,2.5322,2.5322,2.5321,2.5321,2.5321,2.5026,2.5052,2.5077,2.511,2.5129,2.5151,2.5176,2.5189,2.5217,2.525,2.5252,2.5288,2.5309,2.5347,2.5361,2.5388,2.5379,2.5391,2.5393,2.5396,2.5398,2.5323,2.5393,2.5393,2.5393,2.5393,2.5393,0,2.5096,2.5112,2.5142,2.5176,2.5201,2.5195,2.522,2.5241,2.5274,2.5295,2.532,2.5357,2.5387,2.5402,2.5431,2.5449,2.5448,2.5457,2.5455,2.5458,2.5405,2.5395,2.5458,2.5458,2.5458,2.5457,2.5457,2.5457,2.5135,2.5179,2.5186,2.5238,2.5253,2.5289,2.5304,2.5324,2.5341,2.5383,2.5408,2.5418,2.5436,2.5466,2.5492,2.5496,2.5506,2.5516,2.5518,2.5469,2.5462,2.5456,2.5447,2.5519,2.5519,2.5569,2.557,2.557]}]]